FW2905 Weather Reports


time (UTC)temp
C
wind
direction
speed
KPH
gust
KPH
rain 1hr
cm
rain 24hr
cm
rain mn
cm
humidity
%
barometer
mb
20260503200518 18 189 19.3 37.0 0.00 0.00 0.00 44 1005.9
20260503200038 17 276 20.9 41.8 0.00 0.00 0.00 43 1006.3
20260503195519 17 240 20.9 41.8 0.00 0.00 0.00 43 1006.4
20260503195018 18 275 17.7 45.1 0.00 0.00 0.00 43 1006.2
20260503194541 17 242 19.3 46.7 0.00 0.00 0.00 42 1006.2
20260503194018 18 275 20.9 46.7 0.00 0.00 0.00 40 1006.3
20260503193518 18 317 19.3 43.5 0.00 0.00 0.00 42 1006.1
20260503193040 18 289 17.7 43.5 0.00 0.00 0.00 41 1006.4
20260503192517 18 220 20.9 43.5 0.00 0.00 0.00 41 1006.3
20260503192018 18 224 16.1 35.4 0.00 0.00 0.00 42 1006.4
20260503191536 17 232 19.3 41.8 0.00 0.00 0.00 43 1006.5
20260503191018 17 201 16.1 46.7 0.00 0.00 0.00 44 1006.5
20260503190517 17 240 22.5 46.7 0.00 0.00 0.00 44 1006.5
20260503190041 17 248 25.7 48.3 0.00 0.00 0.00 43 1006.4
20260503185515 17 281 22.5 49.9 0.00 0.00 0.00 43 1006.7
20260503185016 17 207 24.1 49.9 0.00 0.00 0.00 44 1006.8
20260503184534 17 290 22.5 41.8 0.00 0.00 0.00 46 1006.8
20260503184018 17 215 22.5 41.8 0.00 0.00 0.00 44 1006.8
20260503183517 17 205 19.3 41.8 0.00 0.00 0.00 44 1006.9
20260503183030 17 254 17.7 53.1 0.00 0.00 0.00 45 1006.9
20260503182523 16 221 17.7 53.1 0.00 0.00 0.00 45 1007.1
20260503182021 16 236 25.7 45.1 0.00 0.00 0.00 44 1007.2
20260503181538 17 250 19.3 41.8 0.00 0.00 0.00 45 1007.2
20260503181018 16 267 16.1 43.5 0.00 0.00 0.00 48 1007.3
20260503180518 16 253 24.1 43.5 0.00 0.00 0.00 47 1007.3
20260503180034 16 223 20.9 38.6 0.00 0.00 0.00 47 1007.4
20260503175516 16 272 17.7 40.2 0.00 0.00 0.00 48 1007.5
20260503175018 16 198 20.9 40.2 0.00 0.00 0.00 47 1007.6
20260503174552 16 213 16.1 33.8 0.00 0.00 0.00 49 1007.4
20260503174018 16 153 20.9 33.8 0.00 0.00 0.00 49 1007.7
20260503173519 15 219 17.7 35.4 0.00 0.00 0.00 49 1007.7
20260503173034 15 207 20.9 40.2 0.00 0.00 0.00 51 1008.0
20260503172517 15 210 19.3 40.2 0.00 0.00 0.00 50 1008.0
20260503172018 15 234 17.7 37.0 0.00 0.00 0.00 51 1008.1
20260503171530 15 197 12.9 32.2 0.00 0.00 0.00 55 1008.2
20260503171016 14 198 17.7 32.2 0.00 0.00 0.00 55 1008.3
20260503170515 13 195 14.5 40.2 0.00 0.00 0.00 57 1008.4
20260503150515 13 229 19.3 33.8 0.00 0.00 0.00 52 1009.4
20260503131018 11 213 11.3 25.7 0.00 0.00 0.00 53 1010.7
20260503130516 10 259 14.5 30.6 0.00 0.00 0.00 53 1010.8
20260503110521 9 139 8.0 24.1 0.00 0.00 0.00 51 1010.8
20260503081544 8 182 8.0 19.3 0.00 0.00 0.00 51 1011.6
20260503081014 8 236 9.7 19.3 0.00 0.00 0.00 51 1011.6
20260503080515 8 239 9.7 17.7 0.00 0.00 0.00 50 1011.6
20260503072515 8 172 6.4 12.9 0.00 0.00 0.00 52 1012.0
20260503072012 8 196 8.0 12.9 0.00 0.00 0.00 52 1012.0
20260503071538 8 221 4.8 11.3 0.00 0.00 0.00 52 1012.0
20260503071015 8 207 4.8 12.9 0.00 0.00 0.00 52 1012.0
20260503070515 8 192 6.4 14.5 0.00 0.00 0.00 52 1012.0
20260503055014 7 222 4.8 12.9 0.00 0.00 0.00 55 1012.7
20260503054535 7 205 4.8 14.5 0.00 0.00 0.00 56 1012.8
20260503054018 7 183 4.8 14.5 0.00 0.00 0.00 58 1012.8
20260503053515 6 207 3.2 6.4 0.00 0.00 0.00 60 1012.8
20260503053033 6 238 1.6 4.8 0.00 0.00 0.00 61 1012.9
20260503052515 6 229 3.2 6.4 0.00 0.00 0.00 62 1012.9
20260503052022 6 205 3.2 6.4 0.00 0.00 0.00 62 1013.0
20260503051530 6 215 3.2 6.4 0.00 0.00 0.00 62 1013.0
20260503051015 6 209 3.2 9.7 0.00 0.00 0.00 63 1013.0
20260503050516 6 202 3.2 11.3 0.00 0.00 0.00 63 1013.1
20260503050031 6 204 4.8 11.3 0.00 0.00 0.00 63 1013.2
20260503045519 6 214 3.2 8.0 0.00 0.00 0.00 64 1013.0
20260503045015 6 216 3.2 8.0 0.00 0.00 0.00 65 1013.2
20260503044541 6 194 4.8 8.0 0.00 0.00 0.00 66 1013.3
20260503044018 5 198 3.2 8.0 0.00 0.00 0.00 66 1013.3
20260503043520 5 194 3.2 4.8 0.00 0.00 0.00 67 1013.3
20260503043035 5 200 1.6 4.8 0.00 0.00 0.00 66 1013.3
20260503042518 6 210 1.6 4.8 0.00 0.00 0.00 66 1013.4
20260503042015 6 221 1.6 4.8 0.00 0.00 0.00 66 1013.4
20260503041536 6 216 1.6 4.8 0.00 0.00 0.00 66 1013.5
20260503041018 6 219 3.2 4.8 0.00 0.00 0.00 65 1013.4
20260503040517 6 213 1.6 6.4 0.00 0.00 0.00 66 1013.4
20260503040035 6 223 1.6 6.4 0.00 0.00 0.00 66 1013.5
20260503035515 6 209 3.2 6.4 0.00 0.00 0.00 66 1013.5
20260503035016 5 202 3.2 6.4 0.00 0.00 0.00 67 1013.6
20260503034550 6 181 1.6 8.0 0.00 0.00 0.00 67 1013.7
20260503034015 6 181 3.2 8.0 0.00 0.00 0.00 66 1013.7
20260503033516 6 188 3.2 9.7 0.00 0.00 0.00 66 1013.7
20260503033035 6 214 4.8 11.3 0.00 0.00 0.00 67 1013.8
20260503032515 6 193 4.8 11.3 0.00 0.00 0.00 67 1013.9
20260503032015 6 221 4.8 9.7 0.00 0.00 0.00 67 1013.8
20260503031533 5 202 3.2 8.0 0.00 0.00 0.00 67 1013.9
20260503031015 5 200 1.6 8.0 0.00 0.00 0.00 68 1013.9
20260503030517 5 181 1.6 8.0 0.00 0.00 0.00 69 1014.1
20260503030031 5 186 3.2 8.0 0.00 0.00 0.00 69 1014.1
20260503025518 5 178 3.2 8.0 0.00 0.00 0.00 70 1014.2
20260503025015 5 188 3.2 8.0 0.00 0.00 0.00 71 1014.2
20260503024535 5 183 3.2 8.0 0.00 0.00 0.00 72 1014.2
20260503024018 5 169 3.2 8.0 0.00 0.00 0.00 73 1014.2
20260503023519 5 158 4.8 9.7 0.00 0.00 0.00 74 1014.2
20260503023035 5 163 4.8 9.7 0.00 0.00 0.00 74 1014.2
20260503022516 5 167 6.4 9.7 0.00 0.00 0.00 73 1014.3
20260503022015 5 173 4.8 9.7 0.00 0.00 0.00 73 1014.3
20260503021535 5 166 4.8 11.3 0.00 0.00 0.00 73 1014.4
20260503021015 5 148 6.4 11.3 0.00 0.00 0.00 73 1014.4
20260503020518 5 152 4.8 9.7 0.00 0.00 0.00 73 1014.4
20260503020031 5 153 4.8 9.7 0.00 0.00 0.00 72 1014.3
20260503015515 5 161 4.8 9.7 0.00 0.00 0.00 72 1014.3
20260503015015 5 150 4.8 11.3 0.00 0.00 0.00 72 1014.2
20260503014535 5 144 6.4 11.3 0.00 0.00 0.00 71 1014.2
20260503014015 5 154 4.8 11.3 0.00 0.00 0.00 71 1014.1
20260503013516 5 160 3.2 11.3 0.00 0.00 0.00 71 1014.1
20260503013030 6 148 4.8 11.3 0.00 0.00 0.00 70 1014.0
20260503012516 6 157 4.8 11.3 0.00 0.00 0.00 70 1014.1
20260503012019 6 153 4.8 11.3 0.00 0.00 0.00 69 1014.0
20260503011532 6 157 4.8 8.0 0.00 0.00 0.00 69 1014.1
20260503011015 6 144 4.8 9.7 0.00 0.00 0.00 68 1014.1
20260503010515 6 146 3.2 11.3 0.00 0.00 0.00 68 1014.1
20260503010030 6 158 4.8 14.5 0.00 0.00 0.00 67 1014.1
20260503005515 6 140 4.8 14.5 0.00 0.00 0.00 66 1014.2
20260503005019 6 163 6.4 12.9 0.00 0.00 0.00 66 1014.2
20260503004532 7 178 6.4 12.9 0.00 0.00 0.00 65 1014.3
20260503004015 7 161 6.4 14.5 0.00 0.00 0.00 65 1014.3
20260503003515 7 161 9.7 16.1 0.00 0.00 0.00 64 1014.2
20260503003046 7 155 8.0 17.7 0.00 0.00 0.00 64 1014.3
20260503002516 7 160 8.0 17.7 0.00 0.00 0.00 63 1014.3
20260503002019 7 144 4.8 12.9 0.00 0.00 0.00 62 1014.3
20260503001549 7 128 4.8 16.1 0.00 0.00 0.00 62 1014.3
20260503001014 8 121 6.4 16.1 0.00 0.00 0.00 61 1014.3
20260503000515 8 161 6.4 16.1 0.00 0.00 0.00 60 1014.4
20260503000032 8 156 6.4 16.1 0.00 0.00 0.00 60 1014.4
20260502235515 8 157 9.7 16.1 0.00 0.00 0.00 60 1014.4
20260502235015 8 153 8.0 17.7 0.00 0.00 0.00 59 1014.6
20260502234535 8 152 9.7 17.7 0.00 0.00 0.00 58 1014.5
20260502234016 8 148 9.7 17.7 0.00 0.00 0.00 58 1014.6
20260502233512 8 132 8.0 16.1 0.00 0.00 0.00 56 1014.7
20260502233033 8 161 9.7 16.1 0.00 0.00 0.00 55 1014.7
20260502232515 8 161 6.4 16.1 0.00 0.00 0.00 54 1014.7
20260502232012 9 146 8.0 16.1 0.00 0.00 0.00 53 1014.8
20260502231531 8 145 6.4 16.1 0.00 0.00 0.00 54 1014.8
20260502231015 8 140 8.0 16.1 0.00 0.00 0.00 53 1014.9
20260502230519 8 151 6.4 16.1 0.00 0.00 0.00 52 1014.9
20260502230036 9 161 9.7 25.7 0.00 0.00 0.00 51 1015.0
20260502225514 9 172 12.9 29.0 0.00 0.00 0.00 49 1015.0
20260502225018 9 186 16.1 29.0 0.00 0.00 0.00 49 1015.0
20260502224530 9 152 14.5 24.1 0.00 0.00 0.00 51 1015.1
20260502224018 8 165 8.0 24.1 0.00 0.00 0.00 52 1015.1
20260502223520 9 153 12.9 22.5 0.00 0.00 0.00 51 1015.1
20260502223036 10 170 11.3 24.1 0.00 0.00 0.00 48 1015.1
20260502222518 10 140 12.9 25.7 0.00 0.00 0.00 48 1015.2
20260502222017 10 163 16.1 25.7 0.00 0.00 0.00 47 1015.2
20260502221540 10 163 14.5 25.7 0.00 0.00 0.00 48 1015.3
20260502221015 9 162 8.0 25.7 0.00 0.00 0.00 50 1015.3
20260502220517 9 171 9.7 25.7 0.00 0.00 0.00 49 1015.3
20260502220037 9 154 16.1 25.7 0.00 0.00 0.00 47 1015.4
20260502215515 10 165 12.9 22.5 0.00 0.00 0.00 46 1015.5
20260502215014 10 172 11.3 24.1 0.00 0.00 0.00 45 1015.6
20260502214540 10 150 11.3 24.1 0.00 0.00 0.00 46 1015.5
20260502214015 10 143 11.3 24.1 0.00 0.00 0.00 47 1015.6
20260502213515 10 166 11.3 29.0 0.00 0.00 0.00 47 1015.7
20260502213033 10 179 14.5 29.0 0.00 0.00 0.00 46 1015.6
20260502212518 10 175 11.3 22.5 0.00 0.00 0.00 47 1015.7
20260502212018 10 124 9.7 20.9 0.00 0.00 0.00 47 1015.7
20260502211535 10 143 8.0 20.9 0.00 0.00 0.00 47 1015.8
20260502211017 8 103 9.7 25.7 0.00 0.00 0.00 47 1015.8
20260502210518 8 134 14.5 25.7 0.00 0.00 0.00 47 1015.8
20260502210038 8 156 14.5 30.6 0.00 0.00 0.00 46 1015.9
20260502205517 8 131 17.7 30.6 0.00 0.00 0.00 46 1016.0
20260502205017 9 165 11.3 25.7 0.00 0.00 0.00 48 1016.0
20260502204536 8 159 14.5 25.7 0.00 0.00 0.00 47 1016.2
20260502204018 8 162 12.9 25.7 0.00 0.00 0.00 47 1016.2
20260502203515 9 152 12.9 25.7 0.00 0.00 0.00 46 1016.2
20260502203036 10 162 9.7 24.1 0.00 0.00 0.00 48 1016.3
20260502202516 9 139 11.3 24.1 0.00 0.00 0.00 48 1016.4
20260502202015 9 150 12.9 22.5 0.00 0.00 0.00 47 1016.5
20260502201533 9 182 12.9 32.2 0.00 0.00 0.00 46 1016.5
20260502201018 8 116 19.3 32.2 0.00 0.00 0.00 44 1016.6